Hourly Weather Rudec Bolshoy

Today, 22 April, Thursday

Time Temperature Precipitation Wind Pressure Humidity
00:00 +7°C° 0 mm 3 mps 744 mmHg 87%
01:00 +7°C° 0 mm 3 mps 744 mmHg 88%
02:00 +7°C° 0 mm 3 mps 744 mmHg 88%
03:00 +7°C° 0 mm 3 mps 744 mmHg 88%
04:00 +5°C° 0 mm 3 mps 744 mmHg 88%
05:00 +5°C° 0 mm 3 mps 744 mmHg 88%
06:00 +6°C° 0 mm 4 mps 744 mmHg 84%
07:00 +7°C° 0 mm 5 mps 744 mmHg 80%
08:00 +9°C° 0 mm 5 mps 744 mmHg 75%
09:00 +8°C° 0.1 mm 5 mps 745 mmHg 75%
10:00 +8°C° 0.1 mm 5 mps 745 mmHg 75%
11:00 +8°C° 0.1 mm 5 mps 746 mmHg 75%
12:00 +8°C° 0 mm 6 mps 746 mmHg 69%
13:00 +8°C° 0 mm 6 mps 746 mmHg 64%
14:00 +8°C° 0 mm 6 mps 746 mmHg 58%
15:00 +8°C° 0 mm 6 mps 746 mmHg 55%
16:00 +8°C° 0 mm 5 mps 746 mmHg 52%
17:00 +8°C° 0 mm 5 mps 746 mmHg 49%
18:00 +7°C° 0 mm 4 mps 746 mmHg 53%
19:00 +6°C° 0 mm 4 mps 747 mmHg 57%
20:00 +5°C° 0 mm 3 mps 747 mmHg 61%
21:00 +4°C° 0 mm 3 mps 747 mmHg 64%
22:00 +3°C° 0 mm 3 mps 747 mmHg 68%
23:00 +2°C° 0 mm 3 mps 747 mmHg 72%

Tomorrow, 23 April, Friday

Time Temperature Precipitation Wind Pressure Humidity
00:00 +1°C° 0 mm 4 mps 747 mmHg 74%
01:00 +1°C° 0 mm 4 mps 747 mmHg 75%
02:00 0°C° 0 mm 4 mps 747 mmHg 77%
03:00 0°C° 0 mm 4 mps 747 mmHg 79%
04:00 -1°C° 0 mm 4 mps 747 mmHg 82%
05:00 -1°C° 0 mm 4 mps 748 mmHg 84%
06:00 0°C° 0 mm 4 mps 748 mmHg 77%
07:00 +1°C° 0 mm 5 mps 748 mmHg 71%
08:00 +2°C° 0 mm 6 mps 749 mmHg 64%
09:00 +3°C° 0 mm 6 mps 749 mmHg 62%
10:00 +3°C° 0 mm 5 mps 749 mmHg 61%
11:00 +5°C° 0 mm 5 mps 749 mmHg 59%
12:00 +5°C° 0.3 mm 6 mps 749 mmHg 56%
13:00 +5°C° 0.3 mm 6 mps 749 mmHg 53%
14:00 +7°C° 0.3 mm 6 mps 749 mmHg 50%
15:00 +7°C° 0.1 mm 6 mps 749 mmHg 53%
16:00 +6°C° 0.1 mm 5 mps 749 mmHg 55%
17:00 +6°C° 0.1 mm 5 mps 748 mmHg 57%
18:00 +5°C° 0.1 mm 4 mps 748 mmHg 64%
19:00 +4°C° 0.1 mm 4 mps 748 mmHg 71%
20:00 +3°C° 0.1 mm 3 mps 748 mmHg 78%
21:00 +1°C° 0.7 mm 4 mps 748 mmHg 83%
22:00 0°C° 0.7 mm 4 mps 748 mmHg 88%
23:00 -1°C° 0.7 mm 5 mps 749 mmHg 93%

Day after tomorrow, 24 April, Saturday

Time Temperature Precipitation Wind Pressure Humidity
00:00 -1°C° 0.1 mm 5 mps 749 mmHg 91%
01:00 -2°C° 0.1 mm 5 mps 749 mmHg 89%
02:00 -2°C° 0.1 mm 5 mps 749 mmHg 88%
03:00 -4°C° 0 mm 5 mps 750 mmHg 89%
04:00 -3°C° 0 mm 4 mps 750 mmHg 91%
05:00 -4°C° 0 mm 4 mps 750 mmHg 92%
06:00 -2°C° 0 mm 4 mps 750 mmHg 85%
07:00 -1°C° 0 mm 5 mps 751 mmHg 79%
08:00 0°C° 0 mm 5 mps 751 mmHg 73%
09:00 +2°C° 0 mm 6 mps 751 mmHg 65%
10:00 +3°C° 0 mm 6 mps 751 mmHg 57%
11:00 +5°C° 0 mm 6 mps 751 mmHg 50%
12:00 +5°C° 0.1 mm 7 mps 751 mmHg 49%
13:00 +5°C° 0.1 mm 7 mps 751 mmHg 49%
14:00 +5°C° 0.1 mm 7 mps 750 mmHg 48%
15:00 +5°C° 0.2 mm 7 mps 750 mmHg 51%
16:00 +5°C° 0.2 mm 6 mps 750 mmHg 53%
17:00 +6°C° 0.2 mm 5 mps 750 mmHg 55%
18:00 +4°C° 0.1 mm 4 mps 750 mmHg 64%
19:00 +3°C° 0.1 mm 3 mps 751 mmHg 72%
20:00 +2°C° 0.1 mm 2 mps 751 mmHg 81%
21:00 +2°C° 0 mm 2 mps 751 mmHg 81%
22:00 +1°C° 0 mm 3 mps 751 mmHg 81%
23:00 +1°C° 0 mm 3 mps 751 mmHg 81%

25 April, Sunday

Time Temperature Precipitation Wind Pressure Humidity
00:00 0°C° 0 mm 3 mps 751 mmHg 84%
01:00 0°C° 0 mm 3 mps 750 mmHg 87%
02:00 -1°C° 0 mm 3 mps 750 mmHg 90%
03:00 -2°C° 0 mm 3 mps 750 mmHg 89%
04:00 -2°C° 0 mm 3 mps 751 mmHg 88%
05:00 -4°C° 0 mm 3 mps 751 mmHg 86%
06:00 -2°C° 0 mm 4 mps 751 mmHg 80%
07:00 -1°C° 0 mm 4 mps 751 mmHg 75%
08:00 0°C° 0 mm 5 mps 751 mmHg 69%
09:00 +1°C° 0 mm 5 mps 751 mmHg 62%
10:00 +2°C° 0 mm 5 mps 751 mmHg 55%
11:00 +3°C° 0 mm 5 mps 751 mmHg 48%
12:00 +5°C° 0.1 mm 5 mps 751 mmHg 47%
13:00 +5°C° 0.1 mm 5 mps 751 mmHg 46%
14:00 +6°C° 0.1 mm 5 mps 751 mmHg 45%
15:00 +6°C° 0.1 mm 5 mps 750 mmHg 47%
16:00 +6°C° 0.1 mm 5 mps 750 mmHg 49%
17:00 +6°C° 0.1 mm 5 mps 750 mmHg 52%
18:00 +3°C° 0.2 mm 5 mps 750 mmHg 60%
19:00 +3°C° 0.2 mm 4 mps 750 mmHg 68%
20:00 +2°C° 0.2 mm 3 mps 750 mmHg 77%
21:00 +1°C° 0 mm 3 mps 750 mmHg 79%
22:00 +1°C° 0 mm 3 mps 750 mmHg 82%
23:00 0°C° 0 mm 3 mps 750 mmHg 84%

26 April, Monday

Time Temperature Precipitation Wind Pressure Humidity
00:00 -1°C° 0 mm 3 mps 750 mmHg 86%
01:00 -2°C° 0 mm 3 mps 750 mmHg 88%
02:00 -2°C° 0 mm 3 mps 750 mmHg 91%
03:00 -4°C° 0 mm 3 mps 750 mmHg 91%
04:00 -4°C° 0 mm 3 mps 750 mmHg 92%
05:00 -4°C° 0 mm 3 mps 750 mmHg 93%
06:00 -2°C° 0 mm 3 mps 751 mmHg 84%
07:00 -1°C° 0 mm 4 mps 751 mmHg 76%
08:00 0°C° 0 mm 4 mps 751 mmHg 67%
09:00 +1°C° 0 mm 5 mps 751 mmHg 60%
10:00 +2°C° 0 mm 5 mps 751 mmHg 53%
11:00 +3°C° 0 mm 5 mps 750 mmHg 46%
12:00 +5°C° 0 mm 5 mps 750 mmHg 46%
13:00 +5°C° 0 mm 5 mps 750 mmHg 46%
14:00 +6°C° 0 mm 5 mps 750 mmHg 46%
15:00 +6°C° 0.1 mm 5 mps 749 mmHg 49%
16:00 +6°C° 0.1 mm 4 mps 749 mmHg 52%
17:00 +6°C° 0.1 mm 4 mps 749 mmHg 56%
18:00 +4°C° 0 mm 3 mps 749 mmHg 61%
19:00 +3°C° 0 mm 3 mps 749 mmHg 67%
20:00 +3°C° 0 mm 2 mps 749 mmHg 73%
21:00 +2°C° 0 mm 2 mps 749 mmHg 76%
22:00 +2°C° 0 mm 2 mps 749 mmHg 78%
23:00 +1°C° 0 mm 2 mps 749 mmHg 80%

27 April, Tuesday

Time Temperature Precipitation Wind Pressure Humidity
00:00 +1°C° 0 mm 2 mps 749 mmHg 82%
01:00 -1°C° 0 mm 2 mps 749 mmHg 84%
02:00 -1°C° 0 mm 2 mps 749 mmHg 86%
03:00 -1°C° 0 mm 2 mps 749 mmHg 86%
04:00 -1°C° 0 mm 2 mps 749 mmHg 86%
05:00 0°C° 0 mm 1 mps 749 mmHg 87%
06:00 +1°C° 0 mm 2 mps 749 mmHg 79%
07:00 +3°C° 0 mm 2 mps 749 mmHg 71%
08:00 +5°C° 0 mm 2 mps 749 mmHg 63%
09:00 +7°C° 0 mm 2 mps 748 mmHg 57%
10:00 +8°C° 0 mm 2 mps 748 mmHg 52%
11:00 +10°C° 0 mm 3 mps 748 mmHg 47%
12:00 +10°C° 0 mm 3 mps 747 mmHg 46%
13:00 +11°C° 0 mm 3 mps 746 mmHg 44%
14:00 +11°C° 0 mm 4 mps 746 mmHg 43%
15:00 +11°C° 0 mm 4 mps 745 mmHg 45%
16:00 +11°C° 0 mm 4 mps 745 mmHg 47%
17:00 +11°C° 0 mm 4 mps 744 mmHg 49%
18:00 +10°C° 0 mm 4 mps 743 mmHg 55%
19:00 +7°C° 0 mm 4 mps 743 mmHg 61%
20:00 +6°C° 0 mm 4 mps 742 mmHg 67%
21:00 +6°C° 0 mm 4 mps 742 mmHg 67%
22:00 +6°C° 0 mm 5 mps 741 mmHg 67%
23:00 +6°C° 0 mm 5 mps 740 mmHg 67%
Show more